STARLINK-32563, 61934

Orbit data source: Space-Track

STARLINK-32563, 61934 is a payload satellite owned by SpaceX/Seattle (US) in LEO that was launched on Mon, 11 Nov 2024 UTC via an FALCON 9 launch vehicle from the Air Force Eastern Test Range (AFETR). Payloads include a variety of satellites, spacecraft, and rockets equipped with specific instruments for various scientific and technological missions. These include communications satellites like Starlink; space stations such as the ISS; scientific satellites like the Hubble; Earth observation satellites from companies like Planet Labs, Umbra, and HawkEye 360; GPS; miniature CubeSats for education and research; and military/defense satellites.

Loading next visibility...
STARLINK-32563 details
Identifier
61934, 2024-207Y
Orbit
LEO
Last TLE update8 hours ago
Origin
Flag of USSpaceX/Seattle (US)
ManufacturerSpaceX/Seattle
MissionOperational spacecraft
Bus & MotorSTARLINK V2M, Unknown motor
Mass730 kg wet, ~700 kg dry
Launch date (UTC)
2024-11-11 (1 week ago)
Launch vehicle
FALCON 9
Launch site
Air Force Eastern Test Range (AFETR)
Object type
Payload
Rocket body
Debris
Shape & HBRUnknown
Radar Cross SectionRCS unknown

Expand to show TLE details & history

TLE from 8 hours ago
0 STARLINK-32563
1 61934U 24207Y   24325.91668981 -.00871075  23417-3 -25734-2 0  9995
2 61934  43.0019  94.4080 0001698 285.4724 264.3401 15.91647646  2497
Epoch: 2024-11-20T22:00Z
Definitive object data (Epoch: 2024-11-20T22:00:01.999Z)
Latitude-6.7609°
Longitude-108.74449°
Altitude298.677 km
Speed7.73 km/s
True Right ascension18h 46m 40s
True Declination-6° 43' 05"
Sunlit
Object was in daylight at TLE epoch
Visualization TLE readout
Latitude29.65638°
Longitude99.18812°
Altitude300.449 km
Speed7.732 km/s
Apparent Right ascension11h 39m 23s
Apparent Declination-6° 38' 59"
Sunlit
Object is in full shadow
Visualization observer readout
Local Sidereal Time03:28:48
Azimuth73.042° E
Elevation-29.032°
Doppler factor1
Orbital elements
Apogee altitude300.804 km
Perigee altitude298.537 km
Semi-major axis6,677.807 km
Eccentricity0.0001698
Inclination43.0019°
RAAN94.408°
Arg. of periapsis285.4724°
True anomaly264.32074°
Mean anomaly264.3401°
Eccentric anomaly264.33042°
Mean motion3.97734 °/min
BSTAR-0.0025734
Orbital period90.51 mins
Loading maneuver chart data...
Loading historical data...
Loading historical data...
Loading historical data...
Loading historical data...
Loading historical data...
Loading historical data...
Loading historical data...

STARLINK-32563 Visibility forecast

Observer location: undefined°, undefined

Span
Click to sort rows by Start time (UTC) header in descending order
Start Az.
Max El. time (UTC)
Max El. Az.
Max El.
End time (UTC)
End Az.
4 mins2024-11-21 12:30:15.816Z221.577° SW2024-11-21 12:32:15.816Z135.705° SSE32.722°2024-11-21 12:34:15.816Z83.054° E
|